SPACEBEE-104 (48890 NORAD) Tracking and Keplerian Element Data

This shows tracking and keplerian element data for the satellite.

Feedback or suggestion? Click here.




ElementValue
Catalog48890
NameSPACEBEE-104
Epoch Orbit1383
Epoch Day268.35297328
Epoch Year2021
RAAN35.7705
Inclination97.524
Eccentricity0.0008319
Argument of Perigee303.9794
Mean Anonmoly56.0645
Mean Motion15.11969789
Decay Rate8.75E-06
L11 48890U 21059M 21268.35297328 .00000875 00000-0 54727-4 0 9993
L22 48890 97.5240 35.7705 0008319 303.9794 56.0645 15.11969789 13838

Live tracking and technical data element details for SPACEBEE-104 (NORAD 48890). SPACEBEE-104 can be tracked NOW for your location showing map with azimuth and elevation plus other details from your city location.

Track the satellite on the map from your city or location and see movement details for azimuth, elevation, latitude, longitude, range, height, and movement on the map or in text.







IsCatalogInMostPopularTable: catalog: 48890, numindb: 15
Update: records affected: 1



GetName: 48890 SPACEBEE-104

Hit Count: updated at: Sun, 26 Sep 2021 15:35:13 GMT